Starlink 35952

operational
NORAD ID: 66520 Int'l Des: 2025-265 Owner: SPXS Country: US Constellation: starlink
LEOCIRCULAR

About Starlink 35952

Description loading...

Live Position

Loading 3D Globe...

Upcoming Passes

Altitude History

Altitude vs Time

uPlot chart will show altitude changes over time

Two-Line Element Set

1 66520U 25265E 26062.10171528 .00028373 00000-0 10381-2 0 9998
2 66520 43.0021 315.3402 0001512 266.8342 93.2337 15.27531855 16106
Epoch: Mar 3, 2026 • Age: 11 hours

Current Status

Altitude 482.5 km
Velocity 7.63 km/s
Sub-Earth Point 5.51°N, 160.62°E
Launch Date Nov 19, 2025
Age 0.2 years
Type internet

Technical Details

Classification Payload
Mass 575.00 kg
Dry Mass 530.00 kg
Total Mass 575.00 kg
Length 0.30 m
Diameter 4.10 m
Span 29.00 m
Shape Box + pan
Manufacturer SPXS
Bus Type Starlink V2MO
Phase Status In Orbit
Owner/State SPXS/US

Large Constellations

Loading constellations...